Regional Weather Roundup
Issued by NWS

Home | Current Version | Previous Version | Text Only | Print | Product List | Glossary Off
Versions: 1 2 3 4 5 6 7 8 9 10 11 12 13 14 15 16 17 18 19 20 21 22 23 24 25 26 27 28 29 30 31 32 33 34 35 36 37 38 39 40 41 42 43 44 45 46 47 48 49 50

000
ASUS43 KIND 240509
RWRIN

WEATHER ROUNDUP FOR INDIANA
NATIONAL WEATHER SERVICE INDIANAPOLIS IN
100 AM EDT TUE MAY 24 2016

NOTE: "FAIR" INDICATES FEW OR NO CLOUDS BELOW 12,000 FEET WITH NO
SIGNIFICANT WEATHER AND/OR OBSTRUCTIONS TO VISIBILITY.

* - STATION DOES NOT REPORT WEATHER SUCH AS PRECIPITATION OR FOG.

+ - STATION NOT QUALITY CONTROLLED BY THE NATIONAL WEATHER SERVICE.
    USE DATA WITH CAUTION...ESPECIALLY DEWPOINT AND RELATIVE
    HUMIDITY OBSERVATIONS.

INZ001>003-010>013-019-020-240600-
NORTHWEST INDIANA

CITY           SKY/WX    TMP DP  RH WIND       PRES   REMARKS
GARY /AIRPORT/ CLEAR     68  47  46 S7        29.96R
KNOX *+        PTCLDY    59  28  31 S8        29.98S
LA PORTE +     CLEAR     65  35  33 SE3       29.99R
MICHIGAN CITY+ CLEAR     64  36  34 S7        29.97S
MONTICELLO +   PTCLDY    64  35  34 SE3       29.98S
RENSSELAER +   CLEAR     63  36  36 S6        29.98R
VALPARAISO     CLEAR     64  35  34 SE6       29.98R

$$

LMZ046-743>745-240600-
SOUTHERN LAKE MICHIGAN

STATION/POSITION TIME  TEMP    WIND        PRES    WAVE
                       AIR SEA DIR/SP/G            HT
                 (UTC) (F)     (DEG/KT/KT) (MB)    (FT)
BURNS HARBOR     0500   70     160/  9/ 19 1014.9R
MICHIGAN CITY    0400   69     130/ 11/ 15   N/A
5NW MICH CITY    0500   63 57  170/  8/ 10   N/A     1

$$

INZ004-005-014>016-021>024-240600-
NORTH CENTRAL INDIANA

CITY           SKY/WX    TMP DP  RH WIND       PRES   REMARKS
GOSHEN         CLEAR     53  38  56 SE5       29.99S
LOGANSPORT +   PTCLDY    59  37  44 S5        30.01R
PERU/GRISSOM   CLEAR     59  39  48 S5        29.99S
ROCHESTER +    CLEAR     59  41  51 CALM      30.00S
SOUTH BEND     PTCLDY    62  35  36 S7        30.00R
WARSAW +       CLEAR     54  37  54 CALM      30.01R

$$

INZ006>009-017-018-025>027-240600-
NORTHEAST INDIANA

CITY           SKY/WX    TMP DP  RH WIND       PRES   REMARKS
ANGOLA *+      CLEAR     48  45  87 CALM      30.01S
AUBURN +       CLEAR     52  43  71 CALM      30.02S
FORT WAYNE     PTCLDY    56  46  69 CALM      30.02S
HUNTINGTON +   CLEAR     53  47  79 CALM      30.01R

$$

INZ028-029-035-036-043>045-051>053-240600-
WEST CENTRAL INDIANA

CITY           SKY/WX    TMP DP  RH WIND       PRES   REMARKS
CRAWFORDSVL +  PTCLDY    56  45  66 SE7       30.00S
GREENCASTLE +  CLEAR     59  46  63 S3        30.02R
LAFAYETTE      PTCLDY    59  41  51 E5        29.98S
TERRE HAUTE    CLEAR     59  48  67 SE5       30.00R

$$

INZ030>032-037>040-046>048-054>057-064-065-240600-
CENTRAL INDIANA

CITY           SKY/WX    TMP DP  RH WIND       PRES   REMARKS
CP ATTERBURY + CLEAR     50  46  87 CALM      30.03S
FRANKFORT +      N/A     58  31  34 CALM      30.02S
GREENWOOD *+   CLEAR     59  43  55 CALM      30.03S
INDIANAPOLIS   PTCLDY    65  39  38 S12       30.00S
-EAGLE CREEK   PTCLDY    57  47  69 CALM      30.01S
KOKOMO *+      CLEAR     54  39  58 S6        30.00F
MARION +       CLEAR     56  44  64 CALM      30.02S
SHELBYVILLE    CLEAR     57  48  72 SE3       30.02S
ZIONSVILLE +   CLEAR     53  48  83 CALM      30.03S

$$

INZ033-034-041-042-049-050-058-059-240600-
EAST CENTRAL INDIANA

CITY           SKY/WX    TMP DP  RH WIND       PRES   REMARKS
MUNCIE         CLEAR     64  45  49 S5        30.02S

$$

INZ060-061-067>069-081>083-085>088-240600-
SOUTHWEST INDIANA

CITY           SKY/WX    TMP DP  RH WIND       PRES   REMARKS
EVANSVILLE     CLOUDY    64  49  57 CALM      30.00S
HUNTINGBURG *+ CLEAR     63  45  51 SE6       30.01S
WASHINGTON +   HAZE      60  52  75 S5        30.00R VSB 1/2

$$

INZ062-063-066-070>080-084-089>092-240600-
SOUTH CENTRAL AND SOUTHEAST INDIANA

CITY           SKY/WX    TMP DP  RH WIND       PRES   REMARKS
BLOOMINGTON    CLEAR     53  47  79 CALM      30.02S
MADISON *+     CLEAR     55  50  82 CALM      30.06S
NORTH VERNON + CLEAR     55  55 100 CALM      30.04F
SEYMOUR +      CLEAR     57  54  88 CALM      30.03S

$$




USA.gov is the U.S. government's official web portal to all federal, state and local government web resources and services.